Ellington Field, TX

1:22 AM CDT on June 23, 2017 (GMT -0500)
Ellington

Weather History for KEFD - August, 2013

Change the Weather History Date:

Friday, August 9, 2013

  Actual Average Record
Temperature  
Mean Temperature 88 °F -  
Max Temperature 98 °F 91 °F 100 °F (2011)
Min Temperature 77 °F 73 °F 71 °F (2005)
Cooling Degree Days 22    
Growing Degree Days 38 (Base 50)    
Moisture  
Dew Point 76 °F    
Average Humidity 69    
Maximum Humidity 94    
Minimum Humidity 44    
Precipitation  
Precipitation 0.00 in - - ()
Sea Level Pressure  
Sea Level Pressure 29.94 in    
Wind  
Wind Speed 2 mph (SE)    
Max Wind Speed 9 mph    
Max Gust Speed -    
Visibility 10 miles    
Events      
Averages and records for this station are not official NWS values.
T = Trace of Precipitation, MM = Missing Value Source: NWS Daily Summary

Daily Weather History Graph

Daily Weather History Graph

Search for Another Location

Airport or City:

Trip Planner

Search our weather history database for the weather conditions in past years. The results will help you decide how hot, cold, wet, or windy it might be!

Date:

Astronomy

Aug. 09, 2013 Rise Set
Actual Time 6:45 AM CDT 8:06 PM CDT
Civil Twilight 6:19 AM CDT 8:31 PM CDT
Nautical Twilight 5:49 AM CDT 9:01 PM CDT
Astronomical Twilight 5:18 AM CDT 9:33 PM CDT
Moon 9:14 AM CDT (8/9) 9:36 PM CDT (8/9)
Length of Visible Light 14h 11m
Length of Day
13h 21m
Waxing Crescent, 8% of the Moon is Illuminated
Aug 9
Waxing Crescent
Aug 14
First Quarter
Aug 20
Full
Aug 28
Last Quarter
Sep 5
New

Hourly Weather History & Observations

Time (CDT) Temp. Heat Index Dew Point Humidity Pressure Visibility Wind Dir Wind Speed Gust Speed Precip Events Conditions
12:50 AM 80.6 °F 87.1 °F 77.0 °F 89% 29.93 in 10.0 mi Calm Calm - N/A   Scattered Clouds
1:50 AM 78.8 °F - 77.0 °F 94% 29.92 in 10.0 mi Calm Calm - N/A   Scattered Clouds
2:50 AM 78.8 °F - 75.2 °F 89% 29.92 in 10.0 mi Calm Calm - N/A   Partly Cloudy
3:50 AM 78.8 °F - 75.2 °F 89% 29.92 in 10.0 mi Calm Calm - N/A   Partly Cloudy
4:50 AM 78.8 °F - 77.0 °F 94% 29.92 in 10.0 mi Calm Calm - N/A   Partly Cloudy
5:50 AM 77.0 °F - 73.4 °F 89% 29.92 in 10.0 mi Calm Calm - N/A   Partly Cloudy
6:50 AM 77.0 °F - 73.4 °F 89% 29.93 in 10.0 mi Calm Calm - N/A   Partly Cloudy
7:50 AM 80.6 °F 87.1 °F 77.0 °F 89% 29.95 in 10.0 mi Calm Calm - N/A   Partly Cloudy
8:50 AM 89.6 °F 108.2 °F 80.6 °F 75% 29.97 in 10.0 mi West 3.5 mph - N/A   Partly Cloudy
9:50 AM 89.6 °F 108.2 °F 80.6 °F 75% 29.98 in 10.0 mi Calm Calm - N/A   Mostly Cloudy
10:50 AM 91.4 °F 105.1 °F 77.0 °F 63% 29.98 in 10.0 mi Calm Calm - N/A   Mostly Cloudy
12:50 PM 96.8 °F 112.2 °F 77.0 °F 53% 29.95 in 10.0 mi Calm Calm - N/A   Mostly Cloudy
1:50 PM 98.6 °F 114.4 °F 77.0 °F 50% 29.95 in 10.0 mi East 4.6 mph - N/A   Mostly Cloudy
2:50 PM 98.6 °F 117.2 °F 78.8 °F 53% 29.93 in 10.0 mi ESE 9.2 mph - N/A   Mostly Cloudy
3:50 PM 98.6 °F 117.2 °F 78.8 °F 53% 29.91 in 10.0 mi East 9.2 mph - N/A   Scattered Clouds
4:50 PM 98.6 °F 117.2 °F 78.8 °F 53% 29.90 in 10.0 mi SE 5.8 mph - N/A   Scattered Clouds
5:50 PM 98.6 °F 117.2 °F 78.8 °F 53% 29.90 in 10.0 mi East 6.9 mph - N/A   Scattered Clouds
6:50 PM 96.8 °F 109.6 °F 75.2 °F 50% 29.90 in 10.0 mi East 9.2 mph - N/A   Partly Cloudy
7:50 PM 93.2 °F 97.7 °F 68.0 °F 44% 29.90 in 10.0 mi SE 9.2 mph - N/A   Partly Cloudy
8:50 PM 89.6 °F 94.7 °F 69.8 °F 52% 29.93 in 10.0 mi SSE 4.6 mph - N/A   Scattered Clouds
9:50 PM 87.8 °F 93.8 °F 71.6 °F 58% 29.96 in 10.0 mi SSE 3.5 mph - N/A   Scattered Clouds
10:50 PM 86.0 °F 93.4 °F 73.4 °F 66% 29.98 in 10.0 mi Calm Calm - N/A   Partly Cloudy
11:50 PM 86.0 °F 93.4 °F 73.4 °F 66% 29.98 in 10.0 mi Calm Calm - N/A   Partly Cloudy